Weather History for Georgetown, SC

Change the Weather History Date:

Friday, September 13, 2013

  Actual Average Record
Temperature  
Mean Temperature 80 °F -  
Max Temperature 89 °F 85 °F 89 °F (2013)
Min Temperature 71 °F 66 °F 64 °F (2011)
Cooling Degree Days 15    
Growing Degree Days 30 (Base 50)    
Moisture  
Dew Point 72 °F    
Average Humidity 84    
Maximum Humidity 100    
Minimum Humidity 52    
Precipitation  
Precipitation 0.00 in - - ()
Sea Level Pressure  
Sea Level Pressure 29.82 in    
Wind  
Wind Speed 6 mph (WSW)    
Max Wind Speed 12 mph    
Max Gust Speed -    
Visibility 10 miles    
Events Thunderstorm    
Averages and records for this station are not official NWS values.
T = Trace of Precipitation, MM = Missing Value Source: NWS Daily Summary

Daily Weather History Graph

Daily Weather History Graph

Search for Another Location

Airport:

Trip Planner

Search our weather history database for the weather conditions in past years. The results will help you decide how hot, cold, wet, or windy it might be!

Date:

Astronomy

Sep. 13, 2013 Rise Set
Actual Time 6:59 AM EDT 7:26 PM EDT
Civil Twilight 6:34 AM EDT 7:50 PM EDT
Nautical Twilight 6:05 AM EDT 8:20 PM EDT
Astronomical Twilight 5:35 AM EDT 8:49 PM EDT
Moon 3:01 PM EDT (9/13) 12:40 AM EDT (9/13)
Length of Visible Light 13h 16m
Length of Day
12h 26m
First Quarter, 61% of the Moon is Illuminated
Sep 13
First Quarter
Sep 19
Full
Sep 26
Last Quarter
Oct 4
New
Oct 11
First Quarter

Hourly Weather History & Observations

Time (EDT) Temp. Heat Index Dew Point Humidity Pressure Visibility Wind Dir Wind Speed Gust Speed Precip Events Conditions
12:15 AM 71.6 °F - 71.6 °F 100% 29.89 in 10.0 mi WSW 5.8 mph - N/A   Scattered Clouds
12:35 AM 71.6 °F - 71.6 °F 100% 29.89 in 10.0 mi SW 5.8 mph - N/A   Scattered Clouds
12:55 AM 71.6 °F - 71.6 °F 100% 29.88 in 10.0 mi SW 6.9 mph - N/A   Clear
1:15 AM 71.6 °F - 71.6 °F 100% 29.88 in 10.0 mi SW 6.9 mph - N/A   Clear
1:35 AM 71.6 °F - 71.6 °F 100% 29.87 in 10.0 mi SW 6.9 mph - N/A   Clear
1:55 AM 71.6 °F - 71.6 °F 100% 29.86 in 10.0 mi SW 5.8 mph - N/A   Clear
2:15 AM 71.6 °F - 71.6 °F 100% 29.85 in 10.0 mi WSW 6.9 mph - N/A   Clear
2:35 AM 71.6 °F - 71.6 °F 100% 29.84 in 10.0 mi SW 6.9 mph - N/A   Clear
2:55 AM 71.6 °F - 71.6 °F 100% 29.84 in 10.0 mi WSW 8.1 mph - N/A   Clear
3:15 AM 71.6 °F - 71.6 °F 100% 29.83 in 10.0 mi WSW 8.1 mph - N/A   Clear
3:35 AM 71.6 °F - 71.6 °F 100% 29.83 in 10.0 mi WSW 8.1 mph - N/A   Clear
3:55 AM 71.6 °F - 71.6 °F 100% 29.83 in 10.0 mi SW 6.9 mph - N/A   Scattered Clouds
4:15 AM 71.6 °F - 71.6 °F 100% 29.83 in 10.0 mi SW 6.9 mph - N/A   Scattered Clouds
4:35 AM 71.6 °F - 71.6 °F 100% 29.83 in 10.0 mi SW 6.9 mph - N/A   Clear
4:55 AM 71.6 °F - 71.6 °F 100% 29.83 in 10.0 mi SW 6.9 mph - N/A   Clear
5:15 AM 71.6 °F - 71.6 °F 100% 29.83 in 10.0 mi SW 5.8 mph - N/A   Clear
5:35 AM 71.6 °F - 71.6 °F 100% 29.82 in 10.0 mi SW 6.9 mph - N/A   Clear
5:55 AM 71.6 °F - 71.6 °F 100% 29.82 in 10.0 mi SW 8.1 mph - N/A   Clear
6:15 AM 71.6 °F - 71.6 °F 100% 29.83 in 10.0 mi SW 6.9 mph - N/A   Clear
6:35 AM 71.6 °F - 71.6 °F 100% 29.83 in 10.0 mi WSW 9.2 mph - N/A   Clear
6:55 AM 71.6 °F - 71.6 °F 100% 29.83 in 10.0 mi WSW 6.9 mph - N/A   Mostly Cloudy
7:15 AM 71.6 °F - 71.6 °F 100% 29.83 in 10.0 mi WSW 6.9 mph - N/A   Mostly Cloudy
7:35 AM 71.6 °F - 71.6 °F 100% 29.83 in 10.0 mi WSW 5.8 mph - N/A   Mostly Cloudy
7:55 AM 71.6 °F - 71.6 °F 100% 29.83 in 10.0 mi WSW 5.8 mph - N/A   Scattered Clouds
8:15 AM 71.6 °F - 71.6 °F 100% 29.83 in 10.0 mi WSW 5.8 mph - N/A   Clear
8:35 AM 73.4 °F - 73.4 °F 100% 29.83 in 10.0 mi WSW 8.1 mph - N/A   Clear
8:55 AM 75.2 °F - 73.4 °F 94% 29.83 in 10.0 mi West 6.9 mph - N/A   Clear
9:15 AM 77.0 °F - 73.4 °F 89% 29.83 in 10.0 mi West 10.4 mph - N/A   Clear
9:35 AM 75.2 °F - 71.6 °F 89% 29.83 in 10.0 mi West 6.9 mph - N/A   Clear
9:55 AM 77.0 °F - 71.6 °F 83% 29.84 in 10.0 mi West 8.1 mph - N/A   Clear
10:15 AM 78.8 °F - 71.6 °F 78% 29.83 in 10.0 mi West 8.1 mph - N/A   Clear
10:35 AM 80.6 °F 84.6 °F 71.6 °F 74% 29.83 in 10.0 mi West 8.1 mph - N/A   Clear
10:55 AM 82.4 °F 87.2 °F 71.6 °F 70% 29.83 in 10.0 mi NW 10.4 mph - N/A   Clear
11:15 AM 82.4 °F 87.2 °F 71.6 °F 70% 29.83 in 10.0 mi NNW 6.9 mph - N/A   Clear
11:35 AM 84.2 °F 89.6 °F 71.6 °F 66% 29.83 in 10.0 mi North 6.9 mph - N/A   Clear
11:55 AM 86.0 °F 91.8 °F 71.6 °F 62% 29.83 in 10.0 mi WNW 9.2 mph - N/A   Clear
12:15 PM 86.0 °F 91.8 °F 71.6 °F 62% 29.82 in 10.0 mi NNW 5.8 mph - N/A   Clear
12:35 PM 86.0 °F 91.8 °F 71.6 °F 62% 29.81 in 10.0 mi Calm Calm - N/A   Clear
12:55 PM 87.8 °F 93.8 °F 71.6 °F 58% 29.81 in 10.0 mi NNW 5.8 mph - N/A   Clear
1:15 PM 87.8 °F 93.8 °F 71.6 °F 58% 29.81 in 10.0 mi West 8.1 mph - N/A   Clear
1:35 PM 87.8 °F 92.6 °F 69.8 °F 55% 29.80 in 10.0 mi WNW 3.5 mph - N/A   Clear
1:55 PM 87.8 °F 92.6 °F 69.8 °F 55% 29.79 in 10.0 mi WNW 4.6 mph - N/A   Clear
2:35 PM 87.8 °F 92.6 °F 69.8 °F 55% 29.78 in 10.0 mi WNW 5.8 mph - N/A   Scattered Clouds
2:55 PM 89.6 °F 94.7 °F 69.8 °F 52% 29.78 in 10.0 mi SSW 5.8 mph - N/A   Scattered Clouds
3:15 PM 87.8 °F 92.6 °F 69.8 °F 55% 29.77 in 10.0 mi Calm Calm - N/A   Clear
3:35 PM 87.8 °F 92.6 °F 69.8 °F 55% 29.77 in 10.0 mi WSW 4.6 mph - N/A   Clear
3:55 PM 86.0 °F 90.4 °F 69.8 °F 58% 29.76 in 10.0 mi West 5.8 mph - N/A   Scattered Clouds
4:15 PM 86.0 °F 91.8 °F 71.6 °F 62% 29.76 in 10.0 mi SSW 4.6 mph - N/A   Scattered Clouds
4:35 PM 87.8 °F 93.8 °F 71.6 °F 58% 29.76 in 10.0 mi West 6.9 mph - N/A   Clear
4:55 PM 87.8 °F 93.8 °F 71.6 °F 58% 29.76 in 10.0 mi WSW 4.6 mph - N/A   Clear
5:15 PM 87.8 °F 92.6 °F 69.8 °F 55% 29.76 in 10.0 mi West 5.8 mph - N/A Thunderstorm Thunderstorm
5:35 PM 86.0 °F 91.8 °F 71.6 °F 62% 29.76 in 10.0 mi WNW 3.5 mph - N/A   Mostly Cloudy
5:55 PM 86.0 °F 91.8 °F 71.6 °F 62% 29.76 in 10.0 mi NW 4.6 mph - N/A Thunderstorm Mostly Cloudy
6:15 PM 86.0 °F 91.8 °F 71.6 °F 62% 29.77 in 10.0 mi WNW 3.5 mph - N/A   Clear
6:35 PM 82.4 °F 88.2 °F 73.4 °F 74% 29.77 in 10.0 mi South 11.5 mph - N/A   Scattered Clouds
6:55 PM 82.4 °F 88.2 °F 73.4 °F 74% 29.77 in 10.0 mi SSW 4.6 mph - N/A   Mostly Cloudy
7:15 PM 80.6 °F 85.4 °F 73.4 °F 79% 29.78 in 10.0 mi South 4.6 mph - N/A   Scattered Clouds
7:35 PM 78.8 °F - 73.4 °F 83% 29.78 in 10.0 mi Calm Calm - N/A   Clear
7:55 PM 78.8 °F - 73.4 °F 83% 29.78 in 10.0 mi Calm Calm - N/A   Clear
8:15 PM 77.0 °F - 73.4 °F 89% 29.79 in 10.0 mi WSW 3.5 mph - N/A   Clear
8:35 PM 75.2 °F - 73.4 °F 94% 29.80 in 10.0 mi Calm Calm - N/A   Scattered Clouds
8:55 PM 75.2 °F - 73.4 °F 94% 29.81 in 10.0 mi Calm Calm - N/A   Scattered Clouds
9:15 PM 75.2 °F - 73.4 °F 94% 29.81 in 10.0 mi Calm Calm - N/A   Mostly Cloudy
9:35 PM 75.2 °F - 73.4 °F 94% 29.82 in 10.0 mi Calm Calm - N/A   Mostly Cloudy
9:55 PM 75.2 °F - 75.2 °F 100% 29.83 in 10.0 mi Calm Calm - N/A   Scattered Clouds
10:15 PM 75.2 °F - 75.2 °F 100% 29.83 in 10.0 mi Calm Calm - N/A   Mostly Cloudy
10:35 PM 75.2 °F - 75.2 °F 100% 29.83 in 10.0 mi Calm Calm - N/A   Mostly Cloudy
10:55 PM 75.2 °F - 75.2 °F 100% 29.83 in 10.0 mi Calm Calm - N/A   Mostly Cloudy
11:15 PM 75.2 °F - 75.2 °F 100% 29.82 in 10.0 mi Calm Calm - N/A   Mostly Cloudy
11:35 PM 75.2 °F - 75.2 °F 100% 29.83 in 10.0 mi Calm Calm - N/A   Overcast
11:55 PM 73.4 °F - 73.4 °F 100% 29.82 in 10.0 mi Calm Calm - N/A   Scattered Clouds